CW1459 Weather Reports


time (UTC)temp
C
wind
direction
speed
KPH
gust
KPH
rain 1hr
cm
rain 24hr
cm
rain mn
cm
humidity
%
barometer
mb
20260901231317 31 236 4.8 8.0 0.00 0.00 0.00 62 1012.6
20260901230355 32 246 3.2 14.5 0.00 0.00 0.00 59 1012.7
20260901225314 32 302 4.8 16.1 0.00 0.00 0.00 57 1012.7
20260901224339 32 315 3.2 12.9 0.00 0.00 0.00 56 1012.7
20260901223316 33 330 6.4 8.0 0.00 0.00 0.00 58 1012.7
20260901222340 33 304 3.2 11.3 0.00 0.00 0.00 55 1012.7
20260901221322 33 281 3.2 11.3 0.00 0.00 0.00 57 1012.7
20260901220320 32 297 4.8 8.0 0.00 0.00 0.00 56 1012.7
20260901215317 32 252 3.2 12.9 0.00 0.00 0.00 56 1012.7
20260901214316 33 309 6.4 14.5 0.00 0.00 0.00 55 1012.7
20260901213332 33 309 4.8 9.7 0.00 0.00 0.00 56 1012.9
20260901212321 32 288 8.0 16.1 0.00 0.00 0.00 54 1012.9
20260901211314 32 280 6.4 16.1 0.00 0.00 0.00 54 1012.9
20260901210338 33 280 9.7 20.9 0.00 0.00 0.00 53 1012.8
20260901205313 33 277 8.0 17.7 0.00 0.00 0.00 54 1012.9
20260901204322 33 322 6.4 16.1 0.00 0.00 0.00 52 1012.8
20260901203316 34 265 8.0 20.9 0.00 0.00 0.00 52 1012.9
20260901202329 34 315 12.9 20.9 0.00 0.00 0.00 50 1012.9
20260901201334 35 302 9.7 16.1 0.00 0.00 0.00 54 1013.0
20260901200335 35 316 9.7 19.3 0.00 0.00 0.00 51 1013.0
20260901195322 35 293 9.7 17.7 0.00 0.00 0.00 50 1013.0
20260901194317 35 269 9.7 19.3 0.00 0.00 0.00 51 1013.1
20260901193338 34 254 4.8 16.1 0.00 0.00 0.00 54 1013.2
20260901192337 33 257 3.2 16.1 0.00 0.00 0.00 54 1013.3
20260901191314 33 292 8.0 16.1 0.00 0.00 0.00 52 1013.5
20260901190315 34 297 12.9 19.3 0.00 0.00 0.00 52 1013.7
20260901185314 34 306 12.9 20.9 0.00 0.00 0.00 52 1013.7
20260901184321 33 309 8.0 16.1 0.00 0.00 0.00 54 1013.9
20260901183315 34 298 1.6 22.5 0.00 0.00 0.00 57 1013.9
20260901182358 33 320 6.4 12.9 0.00 0.00 0.00 61 1014.1
20260901181336 33 291 3.2 16.1 0.00 0.00 0.00 59 1014.2
20260901180314 33 327 8.0 14.5 0.00 0.00 0.00 62 1014.3
20260901175339 33 238 4.8 12.9 0.00 0.00 0.00 62 1014.3
20260901174317 32 180 4.8 11.3 0.00 0.00 0.00 65 1014.4
20260901173337 32 241 6.4 16.1 0.00 0.00 0.00 64 1014.2
20260901172358 31 202 8.0 12.9 0.00 0.00 0.00 68 1014.3
20260901171338 31 161 4.8 8.0 0.00 0.00 0.00 68 1014.4
20260901170317 31 182 4.8 11.3 0.00 0.00 0.00 69 1014.5
20260901165339 31 229 3.2 8.0 0.00 0.00 0.00 72 1014.7
20260901164320 31 292 3.2 8.0 0.00 0.00 0.00 70 1014.8
20260901163316 30 228 3.2 9.7 0.00 0.00 0.00 71 1014.8
20260901162317 30 173 3.2 6.4 0.00 0.00 0.00 71 1014.8
20260901161318 30 211 3.2 12.9 0.00 0.00 0.00 72 1015.1
20260901160316 30 233 1.6 12.9 0.00 0.00 0.00 67 1015.4
20260901155342 31 159 6.4 12.9 0.00 0.00 0.00 67 1015.3
20260901154330 30 249 3.2 11.3 0.00 0.00 0.00 71 1015.4
20260901153324 30 271 4.8 16.1 0.00 0.00 0.00 70 1015.5
20260901152312 30 217 8.0 12.9 0.00 0.00 0.00 68 1015.4
20260901151313 30 179 4.8 9.7 0.00 0.00 0.00 73 1015.4
20260901150335 28 208 4.8 9.7 0.00 0.00 0.00 76 1015.5
20260901145328 28 227 3.2 8.0 0.00 0.00 0.00 73 1015.6
20260901144319 28 175 6.4 9.7 0.00 0.00 0.00 73 1015.5
20260901143349 28 116 4.8 14.5 0.00 0.00 0.00 75 1015.7
20260901142312 28 244 4.8 14.5 0.00 0.00 0.00 75 1015.8
20260901141337 27 189 4.8 9.7 0.00 0.00 0.00 80 1015.8
20260901140335 26 209 3.2 8.0 0.00 0.00 0.00 81 1015.8
20260901135318 26 158 3.2 9.7 0.00 0.00 0.00 80 1015.9
20260901134312 26 178 4.8 8.0 0.00 0.00 0.00 81 1016.0
20260901133320 26 164 3.2 8.0 0.00 0.00 0.00 80 1016.0
20260901132331 26 180 4.8 8.0 0.00 0.00 0.00 81 1016.0
20260901131313 26 224 3.2 8.0 0.00 0.00 0.00 84 1016.0
20260901130334 25 126 4.8 9.7 0.00 0.00 0.00 87 1016.0
20260901125314 24 151 1.6 3.2 0.00 0.00 0.00 88 1016.2
20260901124315 24 204 1.6 3.2 0.00 0.00 0.00 88 1016.4
20260901123352 24 165 3.2 4.8 0.00 0.00 0.00 89 1016.3
20260901122314 23 170 3.2 4.8 0.00 0.00 0.00 90 1016.4
20260901121337 23 157 1.6 4.8 0.00 0.00 0.00 91 1016.4
20260901120316 23 202 1.6 4.8 0.00 0.00 0.00 92 1016.3
20260901115358 23 202 1.6 3.2 0.00 0.00 0.00 92 1016.3
20260901114314 22 202 0.0 3.2 0.00 0.00 0.00 92 1016.2
20260901113334 22 202 1.6 4.8 0.00 0.00 0.00 92 1016.2
20260901112352 22 150 0.0 0.0 0.00 0.00 0.00 92 1016.0
20260901111312 22 150 0.0 1.6 0.00 0.00 0.00 92 1015.8
20260901110313 22 150 0.0 3.2 0.00 0.00 0.00 91 1015.8
20260901105313 22 167 1.6 4.8 0.00 0.00 0.00 91 1015.7
20260901104339 22 167 1.6 3.2 0.00 0.00 0.00 90 1015.8
20260901103321 22 167 1.6 3.2 0.00 0.00 0.00 90 1015.6
20260901102314 22 167 0.0 1.6 0.00 0.00 0.00 90 1015.6
20260901101340 23 167 0.0 1.6 0.00 0.00 0.00 89 1015.6
20260901100312 23 167 0.0 1.6 0.00 0.00 0.00 89 1015.7
20260901095337 23 167 0.0 3.2 0.00 0.00 0.00 89 1015.7
20260901094312 23 167 0.0 4.8 0.00 0.00 0.00 89 1015.7
20260901093313 23 192 1.6 3.2 0.00 0.00 0.00 89 1015.7
20260901092342 23 180 3.2 6.4 0.00 0.00 0.00 89 1015.6
20260901091316 23 165 3.2 6.4 0.00 0.00 0.00 89 1015.6
20260901090402 23 184 3.2 8.0 0.00 0.00 0.00 89 1015.5
20260901085329 23 200 1.6 6.4 0.00 0.00 0.00 90 1015.5
20260901084332 23 153 1.6 6.4 0.00 0.00 0.00 90 1015.5
20260901083328 23 169 3.2 4.8 0.00 0.00 0.00 90 1015.5
20260901082344 23 190 0.0 3.2 0.00 0.00 0.00 90 1015.9
20260901081333 23 190 0.0 3.2 0.00 0.00 0.00 90 1015.9
20260901080347 23 190 0.0 0.0 0.00 0.00 0.00 90 1015.9
20260901075330 23 190 0.0 4.8 0.00 0.00 0.00 90 1015.9
20260901074318 23 186 3.2 8.0 0.00 0.00 0.00 90 1015.8
20260901073331 23 213 0.0 3.2 0.00 0.00 0.00 90 1015.7
20260901072316 23 169 1.6 3.2 0.00 0.00 0.00 91 1015.6
20260901071323 23 210 3.2 4.8 0.00 0.00 0.00 91 1015.6
20260901070336 23 215 1.6 4.8 0.00 0.00 0.00 92 1015.7
20260901065318 23 188 1.6 4.8 0.00 0.00 0.00 93 1015.6
20260901064316 22 169 1.6 4.8 0.00 0.00 0.00 93 1015.9
20260901063317 22 213 3.2 8.0 0.00 0.00 0.00 93 1016.0
20260901062336 22 169 1.6 3.2 0.00 0.00 0.00 93 1016.2
20260901061318 22 169 0.0 1.6 0.00 0.00 0.00 93 1016.3
20260901060318 22 169 0.0 1.6 0.00 0.00 0.00 92 1016.3
20260901055315 22 169 1.6 3.2 0.00 0.00 0.00 92 1016.4
20260901054337 22 169 0.0 1.6 0.00 0.00 0.00 92 1016.5
20260901053316 23 169 0.0 1.6 0.00 0.00 0.00 92 1016.5
20260901052318 23 169 0.0 0.0 0.00 0.00 0.00 92 1016.4
20260901051317 23 169 0.0 1.6 0.00 0.00 0.00 92 1016.5
20260901050336 23 169 0.0 1.6 0.00 0.00 0.00 92 1016.5
20260901045339 23 169 0.0 0.0 0.00 0.00 0.00 92 1016.4
20260901044339 23 169 0.0 0.0 0.00 0.00 0.00 91 1016.3
20260901043328 23 169 0.0 1.6 0.00 0.00 0.00 91 1016.4
20260901042334 23 169 0.0 4.8 0.00 0.00 0.00 91 1016.4
20260901041326 23 169 0.0 3.2 0.00 0.00 0.00 91 1016.5
20260901040353 23 164 1.6 3.2 0.00 0.00 0.00 91 1016.6
20260901035320 22 219 0.0 1.6 0.00 0.00 0.00 91 1016.7
20260901034316 22 219 0.0 1.6 0.00 0.00 0.00 91 1016.9
20260901033353 22 219 0.0 1.6 0.00 0.00 0.00 91 1016.9
20260901032334 22 297 0.0 0.0 0.00 0.00 0.00 91 1017.0
20260901031336 22 297 0.0 1.6 0.00 0.00 0.00 91 1017.0
20260901030336 22 297 0.0 0.0 0.00 0.00 0.00 90 1017.0
20260901025340 22 297 0.0 0.0 0.00 0.00 0.00 90 1017.1
20260901024334 22 297 0.0 1.6 0.00 0.00 0.00 90 1017.2
20260901023336 22 297 0.0 1.6 0.00 0.00 0.00 90 1017.2
20260901022314 22 297 0.0 1.6 0.00 0.00 0.00 90 1017.3
20260901021314 22 297 0.0 1.6 0.00 0.00 0.00 89 1017.3
20260901020338 22 297 0.0 1.6 0.00 0.00 0.00 89 1017.1
20260901015329 22 297 0.0 1.6 0.00 0.00 0.00 88 1017.1
20260901014336 23 297 0.0 1.6 0.00 0.00 0.00 87 1017.1
20260901013316 23 297 0.0 1.6 0.00 0.00 0.00 86 1017.0
20260901012317 23 297 0.0 1.6 0.00 0.00 0.00 86 1016.8
20260901011321 23 297 0.0 4.8 0.00 0.00 0.00 85 1016.7
20260901010332 23 242 1.6 4.8 0.00 0.00 0.00 84 1016.6
20260901005321 23 188 1.6 4.8 0.00 0.00 0.00 84 1016.3
20260901004357 23 160 4.8 8.0 0.00 0.00 0.00 84 1016.3
20260901003358 24 163 0.0 1.6 0.00 0.00 0.00 83 1016.4
20260901002316 24 163 0.0 9.7 0.00 0.00 0.00 83 1016.4
20260901001342 24 154 6.4 12.9 0.00 0.00 0.00 82 1016.4
20260901000336 24 121 3.2 6.4 0.00 0.00 0.00 81 1016.4
20260831235341 24 111 3.2 9.7 0.00 0.00 0.00 80 1016.4
20260831234315 25 110 4.8 11.3 0.00 0.00 0.00 79 1016.6
20260831233317 25 82 8.0 20.9 0.00 0.00 0.00 77 1017.0
20260831232341 26 54 3.2 27.4 0.00 0.00 0.00 74 1017.1